Location: Academy at Carrie F Thomas
(32.8490°N, 97.2053°W)
Time: 23:18:48
(UTC+00:00)

Meteor 1-25 Rocket - Pass Details

Date: 12 July 2022
Orbit: 835 x 892 km, 81.2° (Epoch: 16 August)

Event Time Altitude Azimuth Distance (km) Brightness Sun altitude
Exits shadow 09:20:08 21° 283° (WNW) 1,875 5.7 -22.4°
Maximum altitude 09:20:24 21° 287° (WNW) 1,872 5.7 -22.4°
Drops below altitude 10° 09:24:45 10° 335° (NNW) 2,551 7.0 -21.8°
Sets 09:27:49 0° 351° (N) 3,486 7.9 -21.4°
